Overview Statistics Trail Chart Weather Telemetry Raw packets
 

This is the latest recevied weather packets stored in our database for station/object WY7ATH-2. If no packets are shown the sender has not sent any weather packets the latest 10 day(s).

<< 18 19 20 21 22 23 24 >>
Time Temp. Humidity Pressure Rain* Wind** Luminosity Snow
1788105135 18.33° C - - 6.35 mm 0 m/s - -
1788104538 18.33° C - - 6.35 mm 9.83 m/s, 200° - -
1788103344 17.22° C - - 6.35 mm 9.83 m/s, 143° - -
1788102150 17.22° C - - 6.35 mm 8.49 m/s, 238° - -
1788100355 17.78° C - - 2.29 mm 8.94 m/s, 231° - -
1788099759 16.67° C - - 2.29 mm 6.26 m/s, 212° - -
1788099162 15.56° C - - 2.29 mm 4.02 m/s, 283° - -
1788098565 15° C - - 2.29 mm 5.36 m/s, 242° - -
1788097964 15° C - - 0.25 mm 5.81 m/s, 255° - -
1788096770 14.44° C - - 0.25 mm 4.47 m/s, 236° - -
1788096173 15° C - - 0.25 mm 7.15 m/s, 240° - -
1788095576 15° C - - 0.25 mm 5.81 m/s, 240° - -
1788094979 14.44° C - - 0.25 mm 6.71 m/s, 243° - -
1788094437 14.44° C - - 0 mm 0.89 m/s, 359° - -
1788094381 14.44° C - - 0 mm 0.89 m/s, 359° - -
1788093782 14.44° C - - 0 mm 6.26 m/s, 359° - -
1788093324 13.89° C - - 0 mm 4.47 m/s, 291° - -
1788093185 13.89° C - - 0 mm 4.47 m/s, 291° - -
1788092674 13.33° C - - 0 mm 2.68 m/s, 242° - -
1788092588 13.33° C - - 0 mm 2.68 m/s, 242° - -
1788092030 13.33° C - - 0 mm 0 m/s - -
1788091991 13.33° C - - 0 mm 0 m/s - -
1788091394 13.89° C - - 0 mm 2.68 m/s, 305° - -
1788090793 13.89° C - - 0 mm 6.71 m/s, 264° - -
1788089600 14.44° C - - 0 mm 8.94 m/s, 260° - -

* Rain latest hour (hover to see other rain measurements)
** Current wind speed in m/s (hover to see current wind gust speed)